Location: New Paltz
(41.7500°N, 74.0833°W)
Time: 10:48:03
(UTC-04:00)

Daily predictions for brighter satellites

Satellite Brightness Start Highest point End
(mag) Time Altitude Azimuth Time Altitude Azimuth Time Altitude Azimuth
Cosmos 2333 Rocket 2.9 20:04:36 10° SSE 20:09:31 31° ESE 20:14:27 10° NE
Cosmos 1633 Rocket 3.9 20:06:16 10° NNE 20:10:10 31° ENE 20:14:02 10° SE
COSMOS 2428 2.8 20:08:58 10° S 20:14:35 60° ESE 20:20:13 10° NNE
CZ-2D R/B 3.2 20:12:51 10° SSE 20:16:39 86° ENE 20:20:28 10° N
NOSS 3-3 (A) 4.2 20:11:15 10° S 20:16:54 46° ESE 20:23:04 10° NE
NOSS 3-3 (C) 4.2 20:11:22 10° S 20:17:01 46° ESE 20:23:10 10° NE
Cosmos 2333 4.2 20:11:28 10° S 20:17:03 66° ESE 20:22:38 10° NNE
Cosmos 1844 Rocket 2.8 20:12:13 10° NNW 20:17:54 68° ENE 20:23:31 10° SSE
Cosmos 2263 Rocket 4.5 20:15:20 10° NW 20:19:53 25° WSW 20:24:24 10° SSW
Cosmos 2228 Rocket 4.4 20:17:18 10° SE 20:20:27 20° E 20:23:38 10° NE
Cosmos 2221 3.5 20:16:59 10° SSW 20:21:08 53° W 20:25:19 10° N
Cosmos 1844 3.9 20:15:37 10° NNW 20:21:14 57° ENE 20:26:52 10° SE
Cosmos 1455 3.0 20:19:22 10° SSE 20:22:43 30° E 20:26:06 10° NNE
Cosmos 44 4.5 20:21:08 10° SW 20:25:25 44° NW 20:29:59 10° NNE
Cosmos 1408 4.4 20:23:13 10° NE 20:25:25 15° ENE 20:27:17 11° ESE
ERS-2 2.1 20:21:56 10° SSE 20:25:36 81° ENE 20:29:17 10° NNW
Cosmos 2219 Rocket 2.3 20:22:47 10° S 20:28:16 54° ESE 20:33:46 10° NNE
Cosmos 2237 Rocket 3.1 20:24:22 10° SSE 20:28:55 26° ESE 20:33:29 10° NE
Cosmos 1892 2.9 20:25:13 10° N 20:29:03 53° E 20:32:49 10° SSE
H-2A R/B 3.9 20:27:35 10° E 20:30:08 14° ENE 20:32:39 10° NNE
Cosmos 2154 Rocket 4.0 20:25:00 10° S 20:31:14 71° E 20:37:26 10° NNE
Cosmos 1805 Rocket 3.9 20:30:09 10° NNW 20:34:29 68° W 20:38:46 10° S
CZ-3B R/B 4.2 20:36:51 10° N 20:37:29 11° NNE 20:38:08 10° NE
Cosmos 2278 Rocket 3.0 20:32:22 10° N 20:37:31 34° ENE 20:41:43 14° ESE
Cosmos 1328 Rocket 3.8 20:36:40 10° SSE 20:40:53 48° E 20:45:10 10° NNE
YAOGAN 6 2.5 20:39:04 10° SSE 20:42:39 88° ENE 20:46:19 10° N
Genesis I 4.0 20:38:57 10° NNW 20:42:49 39° NE 20:45:30 17° ESE
Resurs 01 Rocket 1.6 20:39:26 10° SSE 20:43:51 73° ENE 20:48:17 10° N
Cosmos 2251 Rocket 3.7 20:38:37 10° NNW 20:44:01 79° WSW 20:49:22 10° SSE
NOAA 11 4.5 20:38:50 10° SE 20:44:07 50° ENE 20:49:26 10° N
Envisat 3.9 20:43:15 10° S 20:48:10 51° W 20:53:08 10° NNW
Cosmos 1470 Rocket 3.9 20:48:05 10° N 20:52:20 46° ENE 20:55:28 17° SSE
Cosmos 2341 Rocket 4.0 20:46:39 10° S 20:52:58 71° E 20:59:17 10° NNE
ATLAS CENTAUR R/B 1.0 20:51:59 10° SSW 20:55:34 61° ESE 20:59:19 10° NE
Cosmos 1340 4.0 20:53:46 10° SSW 20:57:22 43° WNW 21:01:01 10° N
Cosmos 962 Rocket 4.4 20:52:06 10° S 20:58:12 81° E 21:04:23 10° N
Cosmos 2218 Rocket 4.4 20:53:34 10° SSE 20:59:29 43° E 21:05:28 10° NNE
Cosmos 2098 Rocket 4.0 20:58:55 21° SE 21:00:50 28° E 21:04:18 10° NE
Aureole 2 3.9 21:01:58 10° S 21:05:01 67° ESE 21:07:57 10° NNE
NOSS 0 Rocket 3.9 21:01:16 10° SSW 21:07:23 69° ESE 21:13:33 10° NNE
Cosmos 1825 2.5 21:06:44 10° N 21:10:24 46° E 21:11:38 33° SE
Cosmos 2366 rocket 4.2 21:06:59 12° SSE 21:12:25 49° E 21:18:25 10° NNE
BREEZE-M DEB (TANK) 4.4 21:11:25 10° WNW 21:13:28 20° NNW 21:15:15 10° NE
SL-16 R/B 3.0 21:17:50 27° ESE 21:18:16 27° ESE 21:22:55 10° NE
Cosmos 1939 Rocket 4.3 21:15:39 10° SSW 21:19:12 35° W 21:22:47 10° NNW
USA 186 4.1 21:19:13 10° SW 21:20:19 13° W 21:21:26 10° WNW
Cosmos 1933 Rocket 3.4 21:16:40 10° N 21:21:05 80° E 21:23:24 27° SSE
Meteor 2-3 Rocket 4.1 21:16:06 10° NNW 21:21:38 65° W 21:27:12 10° S
SL-8 Rocket 3.9 21:15:47 10° S 21:22:04 78° E 21:28:22 10° N
GEOS 3 Rocket 4.1 21:21:04 10° NE 21:26:02 38° ESE 21:30:52 10° S
Terra 3.9 21:26:13 12° ENE 21:26:38 12° ENE 21:28:36 10° NE
Cosmos 220 Rocket 4.5 21:23:11 10° NNW 21:27:27 56° WSW 21:29:55 23° S
ARGOS 3.2 21:25:39 31° SE 21:28:09 60° ENE 21:33:26 10° N
Cosmos 1869 3.2 21:27:19 38° SSE 21:28:40 63° E 21:32:40 10° NNE
Cosmos 1151 Rocket 3.1 21:25:00 10° SSW 21:29:14 75° W 21:33:32 10° N
ATLAS 2AS CENTAUR R/B 3.0 21:22:42 10° NW 21:30:35 74° WSW 21:35:15 25° SSE
Spot 2 Rocket 4.2 21:26:22 11° S 21:31:08 52° W 21:36:07 10° NNW
MetOp-B 4.2 21:30:49 34° SE 21:32:59 58° ENE 21:38:15 10° N
Lacrosse 5 4.3 21:35:33 10° NNW 21:38:34 16° N 21:41:36 10° NE
BREEZE-M DEB (TANK) 4.1 21:33:36 10° WNW 21:39:07 28° NNW 21:41:03 15° NE
SPOT 5 3.7 21:40:06 31° ENE 21:40:20 31° ENE 21:44:18 10° N
Cosmos 1869 Rocket 4.0 21:39:05 10° N 21:43:13 41° ENE 21:43:13 41° ENE
Cosmos 1980 4.0 21:39:15 10° SSW 21:44:54 69° WNW 21:50:36 10° NNE
Helios 1B rocket 4.3 21:41:56 10° NE 21:43:25 18° NE 21:43:25 18° NE
Cosmos 2297 4.1 21:43:19 10° NNW 21:48:50 50° ENE 21:50:10 41° E
Meteor 2-10 Rocket 3.6 21:46:07 27° S 21:49:21 77° E 21:55:11 10° NNE
Cosmos 2333 Rocket 3.6 21:48:24 10° SW 21:53:39 38° WNW 21:58:55 10° N
Cosmos 864 Rocket 4.4 21:49:04 16° S 21:54:04 83° W 22:00:15 10° N
Cosmos 2369 Rocket 4.2 21:53:54 10° NNE 21:57:00 15° NE 21:58:28 13° ENE
Cosmos 1441 Rocket 4.4 21:59:48 32° NNE 21:59:48 32° NNE 22:02:01 10° NNE
Helios 1A 3.2 21:59:12 56° ENE 21:59:12 56° ENE 22:03:05 10° N
Cosmos 1408 4.2 21:57:19 10° NNW 22:00:37 31° W 22:01:42 26° SW
SPOT 1/Viking Rocket 3.8 22:00:11 47° E 22:00:40 49° ENE 22:05:42 10° N
NOSS 3-4 (A) 3.9 21:53:58 10° NNW 22:00:58 66° NE 22:03:34 42° ESE
NOSS 3-4 (C) 3.9 21:54:04 10° NNW 22:01:04 65° NE 22:03:40 42° ESE
USA 81 3.9 21:56:14 10° N 22:01:32 81° E 22:02:39 57° SSE
H-2A R/B 2.0 22:07:50 54° S 22:08:57 75° WSW 22:13:57 10° NNW
SL-19 R/B 4.4 22:08:29 51° E 22:09:08 53° ENE 22:14:33 10° N
Cosmos 407 Rocket 3.3 22:05:27 10° NNW 22:10:36 88° ENE 22:11:08 73° SSE
ERS-1 Rocket 2.9 22:10:13 60° S 22:11:05 79° WSW 22:16:09 10° NNW
SL-8 R/B 3.9 22:06:24 10° WSW 22:11:11 71° NNW 22:12:50 40° NE
USA 267 3.1 22:05:16 10° NE 22:11:45 62° SE 22:18:12 10° SW
Cosmos 2219 Rocket 4.4 22:07:59 10° WSW 22:12:33 24° NW 22:17:07 10° N
Cosmos 2237 Rocket 3.2 22:07:19 10° SW 22:12:41 45° WNW 22:18:05 10° NNE
Cosmos 1862 3.7 22:10:40 10° N 22:14:04 61° N 22:14:04 61° N
Cosmos 614 Rocket 4.3 22:09:53 10° N 22:14:58 51° ENE 22:14:58 51° ENE
Cosmos 2278 Rocket 3.4 22:16:27 10° NW 22:21:33 35° WSW 22:23:35 27° SW
SL-08 RB Rocket 4.4 22:24:46 45° WSW 22:25:08 46° W 22:29:28 10° NNW
Cosmos 405 Rocket 3.9 22:28:05 39° NNW 22:28:05 39° NNW 22:30:44 10° N
Cosmos 1000 Rocket 4.3 22:22:38 10° N 22:28:51 74° E 22:29:24 69° ESE
Cosmos 1727 Rocket 4.5 22:23:19 10° NNW 22:29:19 54° W 22:31:34 36° SSW
ATLAS 5 CENTAUR R/B 4.0 22:24:51 10° NNW 22:29:20 22° NE 22:31:07 20° ENE
Cosmos 676 Rocket 3.9 22:24:14 10° NNW 22:29:20 79° NE 22:29:20 79° NE
Cosmos 1821 Rocket 3.9 22:33:03 70° SE 22:33:31 74° E 22:39:49 10° NNE
ATLAS CENTAUR R/B 4.3 22:32:50 10° WNW 22:34:57 14° NW 22:37:09 10° N
Cosmos 1452 Rocket 4.0 22:42:01 51° NNE 22:42:01 51° NNE 22:45:58 10° NNE
USA 234 4.1 22:43:06 33° ENE 22:45:19 43° NNE 22:51:24 10° NW
Landsat 7 4.3 22:46:49 59° NNW 22:46:49 59° NNW 22:50:45 10° NNW
Cosmos 2123 Rocket 4.1 22:44:02 10° N 22:49:58 62° ENE 22:49:58 62° ENE
SL-16 R/B 3.2 22:59:33 28° WSW 23:02:07 44° WNW 23:07:32 10° NNE
Cosmos 2344 3.5 22:58:41 33° SW 23:02:30 86° NW 23:10:56 10° NE
Terra 2.7 23:05:06 46° NNW 23:05:06 46° NNW 23:08:29 10° NNW
Cosmos 1535 Rocket 4.5 23:04:34 79° W 23:04:38 79° W 23:11:03 10° N
Cosmos 1140 Rocket 4.3 23:02:41 10° NNW 23:06:46 47° WNW 23:06:46 47° WNW
CZ-4C R/B 3.4 23:13:19 32° NE 23:13:19 32° NE 23:16:29 10° NE
CZ-2C R/B 4.0 23:14:25 39° N 23:14:25 39° N 23:17:27 10° N
Cosmos 1943 Rocket 3.4 23:09:15 10° N 23:13:21 33° NE 23:13:21 33° NE
Lacrosse 5 3.3 23:18:11 10° NNW 23:21:58 33° N 23:21:58 33° N
Cosmos 1605 Rocket 4.2 23:24:41 67° NNE 23:24:41 67° NNE 23:30:08 10° N
Cosmos 2369 Rocket 3.0 23:36:14 10° NNW 23:40:15 47° NNW 23:40:15 47° NNW
